{"data":{"norad_id":62613,"intl_designator":"2025-009E","name":"FLOCK 4G-8","alt_names":[],"object_type":"PAYLOAD","status":"ACTIVE","operator":null,"country":"US","launch_date":"2025-01-14","launch_site_code":"AFWTR","launch_vehicle":null,"mission":null,"orbit_class":"UNKNOWN","rcs_meters":null,"size_class":null,"mass_kg":null,"dimensions":null,"purposes":["earth_obs"],"wikipedia_slug":null,"has_3d_model":false,"image_url":null,"decayed_at":null,"tle_current":{"epoch":"2026-09-18T23:12:31.203648Z","epoch_age_seconds":147189,"freshness":"FRESH","line1":"1 62613U 25009E   26261.96702782  .00007887  00000+0  26240-3 0  9998","line2":"2 62613  97.3945 343.6558 0003428   3.4475 356.6789 15.31421275 93266","mean_motion":15.31421275,"eccentricity":0.0003428,"inclination_deg":97.3945,"raan_deg":343.6558,"arg_perigee_deg":3.4475,"mean_anomaly_deg":356.6789,"bstar":0.0002624,"rev_number":9326,"period_min":94.030298749768,"perigee_km":469.22290606419,"apogee_km":473.91906585936,"semimajor_km":6849.7079859618,"source":"CELESTRAK","updated_at":"2026-09-20T09:00:34.717258Z"}}}